Regional Weather Roundup
Issued by NWS Little Rock, AR

Home | Current Version | Previous Version | Graphics & Text | Print | Product List | Glossary On
Versions: 1 2 3 4 5 6 7 8 9 10 11 12 13 14 15 16 17 18 19 20 21 22 23 24 25 26 27 28 29 30 31
000
ASUS44 KLZK 201305
RWRLZK

WEATHER ROUNDUP FOR ARKANSAS
NATIONAL WEATHER SERVICE LITTLE ROCK AR
700 AM CST SAT JAN 20 2018

NOTE: "FAIR" INDICATES FEW OR NO CLOUDS BELOW 12,000 FEET WITH NO
SIGNIFICANT WEATHER AND/OR OBSTRUCTIONS TO VISIBILITY.

ARZ001-003-010-029-201400-
NORTHWEST ARKANSAS

CITY           SKY/WX    TMP DP  RH WIND       PRES   REMARKS
FAYETTEVILLE   CLOUDY    49  43  80 S17       29.97F
FORT SMITH     CLOUDY    44  35  70 NE7       30.01S
HARRISON       CLOUDY    46  40  79 SE8       29.99S
BENTONVILLE    CLOUDY    49  44  83 S9G18     29.98R
ROGERS         CLOUDY    50  46  86 S15G22    29.97R
SILOAM SPGS    CLOUDY    49  45  86 S17       29.97R
HIGHFILL       CLOUDY    50  46  86 S18G26    29.95S
SPRINGDALE     CLOUDY    50  46  87 S18       29.98S
$$

ARZ004-005-016-201400-
NORTH CENTRAL ARKANSAS

CITY           SKY/WX    TMP DP  RH WIND       PRES   REMARKS
BATESVILLE     CLOUDY    44  27  51 S8        30.10S
FLIPPIN        CLOUDY    31  28  89 CALM      30.03S
MTN HOME       CLOUDY    38  32  79 SE6       30.02
$$

ARZ040-041-201400-
WEST CENTRAL ARKANSAS

CITY           SKY/WX    TMP DP  RH WIND       PRES   REMARKS
MENA           CLOUDY    50  50 100 S6        30.04R
MOUNT IDA      CLOUDY    48  43  82 SE3       30.04F
$$

ARZ009-017-025-026-028-201400-
NORTHEAST ARKANSAS

CITY           SKY/WX    TMP DP  RH WIND       PRES   REMARKS
JONESBORO      CLOUDY    44  31  60 SW10      30.14R
NEWPORT        FAIR      38  30  73 S9        30.13S
WALNUT RIDGE   CLOUDY    39  29  67 S15       30.11R
BLYTHEVILLE    CLOUDY    42  29  59 S10       30.16R
$$

ARZ022-023-033-042-044-201400-
CENTRAL ARKANSAS

CITY           SKY/WX    TMP DP  RH WIND       PRES   REMARKS
LITTLE ROCK    CLOUDY    45  27  49 S5        30.13R
N LITTLE ROCK    N/A     44  29  56 S6        30.07S
JACKSONVILLE   CLOUDY    44  28  53 CALM      30.11S
SEARCY         CLOUDY    42  30  62 MISG      30.13S
HOT SPRINGS    CLOUDY    47  32  56 SE5       30.10S
RUSSELLVILLE   CLOUDY    45  33  63 CALM      30.07S
CLINTON        CLOUDY    36  28  75 CALM      30.09S
$$

ARZ036-201400-
EAST ARKANSAS

CITY           SKY/WX    TMP DP  RH WIND       PRES   REMARKS
WEST MEMPHIS   CLOUDY    40  30  67 S10       30.16S
$$

ARZ050-053-066-070-073-201400-
SOUTHWEST ARKANSAS

CITY           SKY/WX    TMP DP  RH WIND       PRES   REMARKS
ARKADELPHIA    CLOUDY    41  36  82 CALM      30.12S
CAMDEN         CLOUDY    46  27  46 SE5       30.13S
TEXARKANA      CLOUDY    47  41  80 SE9       30.09R
EL DORADO      CLOUDY    47  35  63 SE8       30.13S
DE QUEEN       CLOUDY    47  38  71 E5        30.05S
$$

ARZ056-057-069-201400-
SOUTHEAST ARKANSAS

CITY           SKY/WX    TMP DP  RH WIND       PRES   REMARKS
PINE BLUFF     CLOUDY    43  30  60 S6        30.14S
STUTTGART      CLOUDY    41  31  67 S9        30.15R
MONTICELLO     CLOUDY    48  33  56 S8        30.15S

$$






USA.gov is the U.S. government's official web portal to all federal, state and local government web resources and services.